STARLINK-34598

Last updated on Fri Aug 08 2025 00:02:05 GMT+0000 (Coordinated Universal Time)

1 64759U 25147E 25218.87610928 .00082055 00000+0 14637-2 0 9991 2 64759 53.1601 163.3249 0003621 82.9890 277.1531 15.49387019 5777

Satellite not in orbit

STARLINK-34598